TimeIST,TemperatureF,Dew PointF,Humidity,Sea Level PressureIn,VisibilityMPH,Wind Direction,Wind SpeedMPH,Gust SpeedMPH,PrecipitationIn,Events,Conditions,WindDirDegrees,DateUTC
12:10 AM,80.6,73.4,79,29.80,2.5,SW,3.5,-,N/A,,Haze,220,2013-10-02 18:40:00
12:40 AM,80.6,73.4,79,29.80,2.5,South,4.6,-,N/A,,Haze,190,2013-10-02 19:10:00
1:10 AM,80.6,75.2,84,29.77,2.5,Calm,Calm,-,N/A,,Haze,0,2013-10-02 19:40:00
1:40 AM,80.6,75.2,84,29.77,2.5,West,4.6,-,N/A,,Haze,280,2013-10-02 20:10:00
2:10 AM,80.6,75.2,84,29.77,2.5,WNW,5.8,-,N/A,,Haze,300,2013-10-02 20:40:00
2:30 AM,81,76,82,29.75,2,WNW,11.5,,,,Haze,290,2013-10-02 21:00:00
3:10 AM,80.6,71.6,74,29.74,3.1,WNW,9.2,-,N/A,,Haze,290,2013-10-02 21:40:00
3:40 AM,80.6,71.6,74,29.74,3.1,West,9.2,-,N/A,,Haze,270,2013-10-02 22:10:00
4:10 AM,80.6,71.6,74,29.74,3.1,WNW,11.5,-,N/A,,Haze,290,2013-10-02 22:40:00
4:40 AM,80.6,71.6,74,29.74,3.1,WNW,13.8,-,N/A,,Haze,290,2013-10-02 23:10:00
5:10 AM,80.6,71.6,74,29.74,3.1,West,12.7,-,N/A,,Haze,270,2013-10-02 23:40:00
5:30 AM,81,70,61,29.75,2,WNW,13.8,,,,Haze,290,2013-10-03 00:00:00
5:40 AM,80.6,69.8,70,29.74,3.1,WNW,10.4,-,N/A,,Haze,290,2013-10-03 00:10:00
6:10 AM,80.6,69.8,70,29.77,3.1,West,10.4,-,N/A,,Haze,280,2013-10-03 00:40:00
6:40 AM,80.6,69.8,70,29.80,3.1,WNW,6.9,-,N/A,,Haze,290,2013-10-03 01:10:00
7:10 AM,80.6,69.8,70,29.80,3.1,West,12.7,-,N/A,,Haze,280,2013-10-03 01:40:00
7:40 AM,80.6,71.6,74,29.83,3.1,WNW,11.5,-,N/A,,Haze,290,2013-10-03 02:10:00
8:10 AM,82.4,71.6,70,29.83,3.1,WNW,16.1,-,N/A,,Haze,290,2013-10-03 02:40:00
8:30 AM,84,72,58,29.83,2,WNW,10.4,,,,Haze,290,2013-10-03 03:00:00
8:40 AM,84.2,71.6,66,29.83,3.1,West,13.8,-,N/A,,Haze,280,2013-10-03 03:10:00
9:10 AM,84.2,73.4,70,29.83,3.1,WNW,10.4,-,N/A,,Haze,300,2013-10-03 03:40:00
9:40 AM,86.0,71.6,62,29.83,3.1,WSW,15.0,-,N/A,,Haze,250,2013-10-03 04:10:00
10:10 AM,86.0,69.8,58,29.83,3.7,SSW,10.4,-,N/A,,Partly Cloudy,200,2013-10-03 04:40:00
10:40 AM,87.8,71.6,58,29.80,3.7,West,8.1,-,N/A,,Partly Cloudy,260,2013-10-03 05:10:00
11:10 AM,89.6,71.6,55,29.80,3.7,WSW,13.8,-,N/A,,Scattered Clouds,240,2013-10-03 05:40:00
11:30 AM,94,69,35,29.79,2,WSW,9.2,,,,Haze,250,2013-10-03 06:00:00
11:40 AM,91.4,71.6,52,29.80,5.0,NW,6.9,-,N/A,,Scattered Clouds,320,2013-10-03 06:10:00
12:10 PM,93.2,69.8,46,29.77,5.0,NW,10.4,-,N/A,,Scattered Clouds,320,2013-10-03 06:40:00
12:40 PM,95.0,69.8,44,29.77,5.0,NW,10.4,-,N/A,,Scattered Clouds,320,2013-10-03 07:10:00
1:10 PM,95.0,69.8,44,29.74,5.0,West,4.6,-,N/A,,Scattered Clouds,280,2013-10-03 07:40:00
1:40 PM,95.0,69.8,44,29.74,5.0,West,6.9,-,N/A,,Scattered Clouds,280,2013-10-03 08:10:00
2:10 PM,96.8,71.6,44,29.71,5.0,SW,6.9,-,N/A,,Scattered Clouds,230,2013-10-03 08:40:00
2:30 PM,99,69,29,29.70,2,WSW,3.5,,,,Haze,250,2013-10-03 09:00:00
2:40 PM,98.6,71.6,42,29.71,5.0,SW,5.8,-,N/A,,Scattered Clouds,230,2013-10-03 09:10:00
3:10 PM,98.6,69.8,39,29.71,5.0,WSW,4.6,-,N/A,,Partly Cloudy,240,2013-10-03 09:40:00
3:40 PM,96.8,71.6,44,29.68,5.0,WNW,3.5,-,N/A,,Partly Cloudy,290,2013-10-03 10:10:00
4:10 PM,95.0,71.6,47,29.68,5.0,West,3.5,-,N/A,,Partly Cloudy,280,2013-10-03 10:40:00
4:40 PM,95.0,71.6,47,29.68,5.0,Variable,3.5,-,N/A,,Partly Cloudy,0,2013-10-03 11:10:00
5:10 PM,95.0,71.6,47,29.68,3.7,South,6.9,-,N/A,,Partly Cloudy,180,2013-10-03 11:40:00
5:30 PM,92,73,44,29.69,2,SE,9.2,,,,Haze,140,2013-10-03 12:00:00
5:40 PM,93.2,73.4,52,29.71,3.7,SE,6.9,-,N/A,,Scattered Clouds,140,2013-10-03 12:10:00
6:10 PM,91.4,73.4,55,29.71,3.7,South,9.2,-,N/A,,Scattered Clouds,170,2013-10-03 12:40:00
7:10 PM,84.2,73.4,70,29.77,3.1,SSW,9.2,-,N/A,,Light Drizzle,200,2013-10-03 13:40:00
7:40 PM,82.4,73.4,74,29.77,3.1,South,6.9,-,N/A,,Haze,170,2013-10-03 14:10:00
8:10 PM,82.4,73.4,74,29.77,3.1,SSE,9.2,-,N/A,,Haze,160,2013-10-03 14:40:00
8:30 PM,81,74,73,29.78,1,South,9.2,,,,Partly Cloudy,180,2013-10-03 15:00:00
8:40 PM,80.6,73.4,79,29.80,3.1,South,6.9,-,N/A,,Haze,180,2013-10-03 15:10:00
9:10 PM,80.6,73.4,79,29.80,3.1,SSW,4.6,-,N/A,,Haze,210,2013-10-03 15:40:00
9:40 PM,80.6,73.4,79,29.83,3.1,SSW,4.6,-,N/A,,Haze,200,2013-10-03 16:10:00
10:10 PM,80.6,73.4,79,29.83,3.1,WSW,5.8,-,N/A,,Haze,240,2013-10-03 16:40:00
10:40 PM,80.6,73.4,79,29.83,3.1,West,6.9,-,N/A,,Haze,270,2013-10-03 17:10:00
11:10 PM,80.6,73.4,79,29.83,3.1,WNW,4.6,-,N/A,,Haze,290,2013-10-03 17:40:00
11:30 PM,80,75,81,29.82,1,West,5.8,,,,Haze,270,2013-10-03 18:00:00
11:40 PM,80.6,75.2,84,29.83,3.1,West,6.9,-,N/A,,Haze,280,2013-10-03 18:10:00